Weather History for KACB - September, 2013

Change the Weather History Date:

Sunday, September 1, 2013

  Actual Average (KTVC) Record (KTVC)
Temperature  
Mean Temperature 68 °F 65 °F  
Max Temperature 81 °F 75 °F 96 °F (1953)
Min Temperature 55 °F 54 °F 40 °F (1991)
Degree Days  
Heating Degree Days 0 3  
Month to date heating degree days 3  
Since 1 July heating degree days 72  
Cooling Degree Days 3 3  
Month to date cooling degree days 3  
Year to date cooling degree days 372  
Growing Degree Days 18 (Base 50)    
Moisture  
Dew Point 62 °F    
Average Humidity 86    
Maximum Humidity 98    
Minimum Humidity 51    
Precipitation  
Precipitation 0.00 in 0.12 in 3.93 in (2000)
Month to date precipitation 0.12  
Year to date precipitation 21.23  
Sea Level Pressure  
Sea Level Pressure 29.77 in    
Wind  
Wind Speed 2 mph (South)    
Max Wind Speed 9 mph    
Max Gust Speed -    
Visibility 7 miles    
Events Fog , Rain    
T = Trace of Precipitation, MM = Missing Value Source: NWS Daily Summary

Daily Weather History Graph

Daily Weather History Graph

Search for Another Location

Airport or City:

Trip Planner

Search our weather history database for the weather conditions in past years. The results will help you decide how hot, cold, wet, or windy it might be!

Date:

Astronomy

Sep. 01, 2013 Rise Set
Actual Time 7:03 AM EDT 8:17 PM EDT
Civil Twilight 6:32 AM EDT 8:47 PM EDT
Nautical Twilight 5:56 AM EDT 9:23 PM EDT
Astronomical Twilight 5:17 AM EDT 10:02 PM EDT
Moon 3:17 AM EDT (9/1) 5:59 PM EDT (9/1)
Length of Visible Light 14h 14m
Length of Day
13h 14m
Waning Crescent, 14% of the Moon is Illuminated
Sep 1
Waning Crescent
Sep 5
New
Sep 12
First Quarter
Sep 19
Full
Sep 26
Last Quarter

Hourly Weather History & Observations

Time (EDT) Temp. Heat Index Dew Point Humidity Pressure Visibility Wind Dir Wind Speed Gust Speed Precip Events Conditions
12:13 AM 60.8 °F - 59.9 °F 97% 29.86 in 10.0 mi Calm Calm - N/A   Clear
12:34 AM 61.0 °F - 60.1 °F 97% 29.86 in 10.0 mi Calm Calm - N/A   Clear
12:53 AM 60.8 °F - 59.9 °F 97% 29.85 in 7.0 mi Calm Calm - N/A   Clear
1:13 AM 60.3 °F - 59.4 °F 97% 29.84 in 7.0 mi Calm Calm - N/A   Clear
1:33 AM 59.2 °F - 58.5 °F 97% 29.83 in 1.2 mi Calm Calm - N/A   Mist
1:53 AM 60.3 °F - 59.4 °F 97% 29.83 in 4.0 mi Calm Calm - N/A   Clear
2:13 AM 57.9 °F - 57.2 °F 97% 29.83 in 0.8 mi Calm Calm - N/A   Mist
2:33 AM 57.9 °F - 57.2 °F 97% 29.82 in 7.0 mi Calm Calm - N/A   Clear
2:53 AM 59.2 °F - 58.5 °F 97% 29.82 in 10.0 mi Calm Calm - N/A   Clear
3:13 AM 58.6 °F - 58.1 °F 98% 29.82 in 7.0 mi Calm Calm - N/A   Clear
3:33 AM 58.5 °F - 57.7 °F 97% 29.82 in 4.0 mi Calm Calm - N/A   Clear
3:53 AM 58.3 °F - 57.6 °F 97% 29.82 in 4.0 mi Calm Calm - N/A   Clear
4:13 AM 57.7 °F - 57.2 °F 98% 29.82 in 3.0 mi Calm Calm - N/A   Clear
4:33 AM 57.2 °F - 56.5 °F 97% 29.82 in 3.0 mi Calm Calm - N/A   Clear
4:53 AM 57.0 °F - 56.3 °F 97% 29.82 in 5.0 mi Calm Calm - N/A   Clear
5:14 AM 57.6 °F - 56.8 °F 97% 29.82 in 3.0 mi Calm Calm - N/A   Clear
5:33 AM 57.6 °F - 56.8 °F 97% 29.81 in 7.0 mi Calm Calm - N/A   Clear
5:53 AM 58.8 °F - 58.1 °F 97% 29.79 in 1.0 mi Calm Calm - N/A   Mist
6:14 AM 59.0 °F - 58.3 °F 97% 29.78 in 1.0 mi Calm Calm - N/A   Mist
6:33 AM 58.1 °F - 57.2 °F 97% 29.78 in 2.5 mi Calm Calm - N/A   Clear
6:53 AM 55.6 °F - 54.9 °F 97% 29.78 in 0.8 mi Calm Calm - N/A   Mostly Cloudy
7:13 AM 58.1 °F - 57.4 °F 97% 29.79 in 0.2 mi Calm Calm - N/A Fog Fog
7:33 AM 58.6 °F - 57.9 °F 97% 29.78 in 0.5 mi Calm Calm - N/A Fog Fog
7:53 AM 59.0 °F - 58.5 °F 98% 29.78 in 1.5 mi Calm Calm - N/A   Mostly Cloudy
8:13 AM 60.8 °F - 60.3 °F 98% 29.78 in 4.0 mi Calm Calm - N/A   Clear
8:33 AM 64.0 °F - 63.3 °F 97% 29.81 in 4.0 mi SSW 3.5 mph - N/A   Scattered Clouds
8:53 AM 65.3 °F - 64.4 °F 97% 29.81 in 5.0 mi South 5.8 mph - N/A   Scattered Clouds
9:13 AM 66.2 °F - 63.7 °F 92% 29.80 in 5.0 mi South 4.6 mph - N/A   Clear
9:33 AM 66.9 °F - 63.1 °F 88% 29.81 in 7.0 mi SSW 3.5 mph - N/A   Clear
9:53 AM 67.8 °F - 63.0 °F 84% 29.80 in 7.0 mi South 4.6 mph - N/A   Clear
10:13 AM 68.5 °F - 63.0 °F 82% 29.81 in 7.0 mi South 5.8 mph - N/A   Scattered Clouds
10:33 AM 68.7 °F - 62.6 °F 81% 29.80 in 10.0 mi South 4.6 mph - N/A   Mostly Cloudy
10:54 AM 69.1 °F - 62.6 °F 80% 29.80 in 10.0 mi South 3.5 mph - N/A   Scattered Clouds
11:13 AM 69.6 °F - 62.6 °F 78% 29.80 in 10.0 mi Calm Calm - N/A   Clear
11:33 AM 71.8 °F - 62.2 °F 72% 29.79 in 10.0 mi SSE 8.1 mph - N/A   Clear
11:54 AM 72.9 °F - 62.1 °F 69% 29.78 in 10.0 mi SW 5.8 mph - N/A   Clear
12:13 PM 73.9 °F - 61.9 °F 66% 29.76 in 10.0 mi South 6.9 mph - N/A   Clear
12:33 PM 74.7 °F - 61.7 °F 64% 29.75 in 10.0 mi South 8.1 mph - N/A   Clear
12:54 PM 76.6 °F - 61.5 °F 59% 29.75 in 10.0 mi SSW 8.1 mph - N/A   Clear
1:13 PM 76.1 °F - 61.0 °F 59% 29.75 in 10.0 mi South 3.5 mph - N/A   Clear
1:33 PM 77.0 °F - 61.9 °F 59% 29.77 in 10.0 mi SW 8.1 mph - N/A   Scattered Clouds
1:54 PM 76.1 °F - 61.5 °F 60% 29.77 in 10.0 mi Calm Calm - N/A   Scattered Clouds
2:13 PM 75.4 °F - 62.6 °F 64% 29.77 in 10.0 mi Calm Calm - N/A   Overcast
2:33 PM 75.4 °F - 62.4 °F 64% 29.76 in 10.0 mi Calm Calm - N/A   Overcast
2:54 PM 75.6 °F - 62.2 °F 63% 29.76 in 10.0 mi Calm Calm - N/A   Mostly Cloudy
3:13 PM 76.1 °F - 62.4 °F 62% 29.73 in 10.0 mi East 4.6 mph - N/A   Mostly Cloudy
3:33 PM 77.4 °F - 63.1 °F 61% 29.72 in 10.0 mi East 5.8 mph - N/A   Mostly Cloudy
3:54 PM 80.1 °F 81.4 °F 62.6 °F 55% 29.71 in 10.0 mi ESE 9.2 mph - N/A   Mostly Cloudy
4:13 PM 79.9 °F - 61.9 °F 54% 29.70 in 10.0 mi ESE 3.5 mph - N/A   Overcast
4:33 PM 81.3 °F 82.2 °F 61.5 °F 51% 29.69 in 10.0 mi SE 9.2 mph - N/A   Mostly Cloudy
4:54 PM 79.0 °F - 61.2 °F 54% 29.68 in 10.0 mi SE 6.9 mph - N/A   Overcast
5:13 PM 74.3 °F - 64.4 °F 71% 29.71 in 3.0 mi NW 5.8 mph - N/A Rain Heavy Rain
5:33 PM 68.5 °F - 65.7 °F 90% 29.72 in 2.0 mi South 4.6 mph - N/A Rain Heavy Rain
5:54 PM 68.4 °F - 66.2 °F 93% 29.70 in 7.0 mi ESE 5.8 mph - N/A Rain Light Rain
6:13 PM 68.2 °F - 66.2 °F 93% 29.71 in 5.0 mi Calm Calm - N/A Rain Rain
6:34 PM 68.5 °F - 66.6 °F 93% 29.71 in 7.0 mi Calm Calm - N/A   Overcast
6:54 PM 68.9 °F - 66.7 °F 93% 29.71 in 5.0 mi Calm Calm - N/A   Overcast
7:13 PM 68.9 °F - 66.7 °F 93% 29.72 in 5.0 mi Calm Calm - N/A   Overcast
7:34 PM 68.9 °F - 67.1 °F 94% 29.73 in 5.0 mi South 4.6 mph - N/A   Overcast
7:54 PM 68.9 °F - 66.7 °F 93% 29.72 in 5.0 mi Calm Calm - N/A   Mostly Cloudy
8:13 PM 68.2 °F - 66.4 °F 94% 29.73 in 5.0 mi South 3.5 mph - N/A   Mostly Cloudy
8:34 PM 67.3 °F - 65.8 °F 95% 29.73 in 5.0 mi Calm Calm - N/A   Scattered Clouds
8:54 PM 66.7 °F - 65.3 °F 95% 29.73 in 7.0 mi Calm Calm - N/A   Scattered Clouds
9:13 PM 66.2 °F - 64.9 °F 96% 29.74 in 7.0 mi Calm Calm - N/A   Scattered Clouds
9:34 PM 64.8 °F - 63.7 °F 96% 29.74 in 3.0 mi Calm Calm - N/A   Mostly Cloudy
9:54 PM 66.2 °F - 65.1 °F 96% 29.75 in 7.0 mi NNW 5.8 mph - N/A   Overcast
10:13 PM 66.2 °F - 64.6 °F 94% 29.76 in 10.0 mi NNW 4.6 mph - N/A   Overcast
10:34 PM 66.2 °F - 64.2 °F 93% 29.76 in 10.0 mi NNW 4.6 mph - N/A   Overcast
10:53 PM 65.5 °F - 63.0 °F 92% 29.77 in 10.0 mi NW 9.2 mph - N/A   Overcast
11:13 PM 64.2 °F - 61.2 °F 90% 29.77 in 10.0 mi NW 5.8 mph - N/A   Overcast
11:34 PM 63.1 °F - 60.3 °F 90% 29.78 in 10.0 mi Calm Calm - N/A   Overcast
11:53 PM 62.6 °F - 59.9 °F 91% 29.78 in 10.0 mi WNW 6.9 mph - N/A   Overcast